Weather History for Wolf Point, MT

Change the Weather History Date:

Monday, December 31, 2012

  Actual Average Record
Temperature  
Mean Temperature 17 °F -  
Max Temperature 20 °F 24 °F 40 °F (2011)
Min Temperature 14 °F 0 °F -20 °F (2010)
Degree Days  
Heating Degree Days 48    
Cooling Degree Days 0    
Moisture  
Dew Point 14 °F    
Average Humidity 86    
Maximum Humidity 100    
Minimum Humidity 78    
Precipitation  
Precipitation T in 0.01 in 0.01 in (2004)
Month to date precipitation 0.05 0.30  
Year to date precipitation 10.20 12.18  
Sea Level Pressure  
Sea Level Pressure 30.13 in    
Wind  
Wind Speed 5 mph (East)    
Max Wind Speed 9 mph    
Max Gust Speed -    
Visibility 8 miles    
Events Fog    
T = Trace of Precipitation, MM = Missing Value Source: NWS Daily Summary

Daily Weather History Graph

Daily Weather History Graph

Search for Another Location

Airport:

Trip Planner

Search our weather history database for the weather conditions in past years. The results will help you decide how hot, cold, wet, or windy it might be!

Date:

Astronomy

Dec. 31, 2012 Rise Set
Actual Time 7:52 AM MST 4:18 PM MST
Civil Twilight 7:16 AM MST 4:55 PM MST
Nautical Twilight 6:36 AM MST 5:34 PM MST
Astronomical Twilight 5:58 AM MST 6:12 PM MST
Moon 8:09 PM MST (12/31) 9:19 AM MST (12/31)
Length of Visible Light 9h 38m
Length of Day
8h 26m
Waning Gibbous, 90% of the Moon is Illuminated
Dec 31
Waning Gibbous
Jan 4
Last Quarter
Jan 11
New
Jan 18
First Quarter
Jan 26
Full

Hourly Weather History & Observations

Time (MST) Temp. Windchill Dew Point Humidity Pressure Visibility Wind Dir Wind Speed Gust Speed Precip Events Conditions
12:53 AM 18.0 °F 9.8 °F 15.1 °F 88% 30.19 in 9.0 mi ENE 5.8 mph - N/A   Overcast
1:53 AM 17.1 °F 6.6 °F 12.9 °F 84% 30.20 in 9.0 mi ENE 8.1 mph - N/A   Overcast
2:53 AM 16.0 °F 6.3 °F 12.0 °F 84% 30.21 in 10.0 mi ENE 6.9 mph - N/A   Overcast
3:36 AM 15.8 °F 6.1 °F 12.2 °F 86% 30.09 in 9.0 mi ENE 6.9 mph - N/A   Overcast
3:53 AM 16.0 °F 5.3 °F 12.0 °F 84% 30.19 in 9.0 mi East 8.1 mph - N/A   Overcast
4:53 AM 16.0 °F 7.4 °F 12.0 °F 84% 30.18 in 9.0 mi ENE 5.8 mph - 0.00 in   Overcast
5:53 AM 15.1 °F 4.2 °F 10.9 °F 84% 30.18 in 9.0 mi ENE 8.1 mph - N/A   Overcast
6:20 AM 14.0 °F 2.0 °F 10.4 °F 86% 30.07 in 9.0 mi ENE 9.2 mph - N/A   Overcast
6:53 AM 14.0 °F 3.9 °F 10.0 °F 84% 30.17 in 10.0 mi East 6.9 mph - N/A   Overcast
7:53 AM 15.1 °F 5.2 °F 10.9 °F 84% 30.17 in 10.0 mi ENE 6.9 mph - N/A   Overcast
8:37 AM 15.8 °F 7.2 °F 10.4 °F 79% 30.05 in 10.0 mi East 5.8 mph - N/A   Overcast
8:53 AM 15.1 °F 6.4 °F 10.9 °F 84% 30.17 in 10.0 mi ENE 5.8 mph - N/A   Overcast
9:53 AM 16.0 °F 6.3 °F 12.0 °F 84% 30.17 in 10.0 mi ENE 6.9 mph - N/A   Overcast
10:10 AM 17.6 °F 8.2 °F 12.2 °F 79% 30.07 in 10.0 mi ENE 6.9 mph - N/A   Overcast
10:27 AM 17.6 °F 9.3 °F 12.2 °F 79% 30.07 in 10.0 mi East 5.8 mph - N/A   Overcast
10:53 AM 17.1 °F 7.6 °F 12.0 °F 81% 30.18 in 10.0 mi ENE 6.9 mph - N/A   Overcast
11:53 AM 17.1 °F 8.7 °F 12.0 °F 81% 30.16 in 10.0 mi East 5.8 mph - N/A   Overcast
12:53 PM 18.0 °F 12.7 °F 12.9 °F 81% 30.14 in 10.0 mi East 3.5 mph - N/A   Overcast
1:12 PM 17.6 °F - 12.2 °F 79% 30.03 in 10.0 mi Calm Calm - N/A   Overcast
1:53 PM 19.0 °F - 14.0 °F 81% 30.14 in 10.0 mi Calm Calm - N/A   Overcast
2:53 PM 19.9 °F - 14.0 °F 78% 30.14 in 10.0 mi Calm Calm - N/A   Overcast
3:53 PM 19.0 °F - 14.0 °F 81% 30.14 in 10.0 mi Calm Calm - N/A   Overcast
4:53 PM 19.0 °F - 14.0 °F 81% 30.15 in 10.0 mi Calm Calm - N/A   Overcast
5:53 PM 19.4 °F - 15.8 °F 86% 30.05 in 6.0 mi Calm Calm - N/A   Overcast
6:53 PM 19.0 °F - 17.1 °F 92% 30.17 in 3.0 mi Calm Calm - N/A   Overcast
7:53 PM 19.4 °F - 17.6 °F 93% 30.06 in 6.0 mi Calm Calm - N/A   Overcast
8:03 PM 19.4 °F - 17.6 °F 93% 30.06 in 7.0 mi Calm Calm - N/A   Overcast
8:53 PM 19.9 °F - 18.0 °F 92% 30.17 in 7.0 mi Calm Calm - N/A   Overcast
9:53 PM 19.4 °F - 17.6 °F 93% 30.07 in 7.0 mi Calm Calm - N/A   Overcast
10:53 PM 18.0 °F 12.7 °F 17.1 °F 96% 30.19 in 1.2 mi South 3.5 mph - N/A   Overcast
10:55 PM 17.6 °F 12.3 °F 17.6 °F 100% 30.08 in 0.8 mi South 3.5 mph - N/A   Overcast
11:53 PM 16.0 °F 8.8 °F 15.1 °F 96% 30.19 in 0.5 mi SSW 4.6 mph - N/A Fog Light Freezing Fog